"Pseudo-MPEC" for P115CdK

Created 2020 Sep 17 0:07:15 UT using Find_Orb

Click here for an explanation of pseudo-MPECs

 
 Astrometry: 
     P115CdK  C2020 09 12MqnYS+oaaWhQd2d40J#3F#l.%TDI]/w/XVb=%$guF_Y\Ni`+V-.HF51
     P115CdK  C2020 09 12;4V9794H4kdQJ(07WV/=iFEX,Phm_6bMF!d`XyblD'DncT`A0o8;F51
     P115CdK  C2020 09 12]23UoLE2ylg,EAstrometryqn8oO\=96#ZMrTB/ADBvnIAZHgG@sF51
     P115CdK  C2020 09 12m7B_,quJ01'jeTtQK;OHkwq2WsTY:M+oe8g`wKCBjR8d)%X@pV7]F51
     P115CdK  C2020 09 133d7l$r047Uw,a(m9AWv_7UYa1pDx45Em.=Wv/YQ`Q7cl@0`aA\X7F52
     P115CdK  C2020 09 13Yt)r!=bF0p=glLw3Q4PDT:^oredacted;[@on2(h4e`i)Himra5dF52
     P115CdK  C2020 09 13g5;TAP*?*x#TZC#N/,pxq0gT31+L7J9enG;RfQiTeg1mv=ctisw,F52
     P115CdK  C2020 09 13'ylSjFq':wG_QR(_=op0FhMt1Fj.-qbS$,oK#P?v'@5Xr==ighS3F52
     P115CdK  C2020 09 16VaA'R)h#kA(Rj-/@_HGtZs8RcY@plPwSqX_FcFgEclickRWRaQXGF51
     P115CdK  C2020 09 16yYA4S3fpl,fhere86=lau+;Anab99sEUKX$7C8D1$nWd5pR;NGWIF51
     P115CdK  C2020 09 16r2/2+/g0gC5X@MWforQ,K/p`YKmufuBwD8p0\pexplanation1#RF51

Station data:
(F51) Pan-STARRS 1, Haleakala  (N20.707235 W156.255910)  US/Hawaii.
   Observers N. Primak, A. Schultz, S. Watters, J. Thiel, T. Goggia. Measurer
   PS1 Science Consortium. 1.8-m Ritchey-Chrétien + CCD.
(F52) Pan-STARRS 2, Haleakala  (N20.707384 W156.255910)  US/Hawaii. 1.8-m
   Ritchey-Chrétien + CCD.

Orbital elements:  P115CdK
   Perihelion 2020 Oct 1.246073 +/- 2.67 TT =  5:54:20 (JD 2459123.746073)
Epoch 2020 Sep 16.0 TT = JDT 2459108.5   Earth MOID: 0.4956   Ma: 0.0725
M 355.70724610 +/- 0.8              (J2000 ecliptic)          AutoNEOCP
n   0.28156455 +/- 0.00859          Peri.  333.47689 +/- 2.0
a   2.30542355 +/- 0.0469           Node    41.84243 +/- 0.37
e   0.3538152 +/- 0.0104            Incl.    7.36084 +/- 0.050
P   3.50                   H 21.6   G  0.15   U  9.6  
q 1.48972951 +/- 0.00663    Q 3.12111759 +/- 0.0892
From 11 observations 2020 Sept. 12-16; mean residual 0".12
Residuals in arcseconds: 
200912 F51  .08-  .01-    200913 F52  .13-  .34-    200916 F51  .01-  .08-    
200912 F51  .04-  .06-    200913 F52  .11+  .23+    200916 F51  .02-  .10+    
200912 F51  .05+  .03-    200913 F52  .15-  .08-    200916 F51  .03+  .02-    
200912 F51  .06+  .12+    200913 F52  .19+  .16+    

Ephemerides (geocentric):
Date (UTC) HH   RA              Dec         delta   r     elong  mag " sig PA
---- -- -- --  -------------   -----------  ------ ------ -----  --- ---- ---
2020 09 17 00  02 05 23.600   +00 34 56.94  .56256 1.4945 143.3 22.3 .276 140
2020 09 17 01  02 05 24.243   +00 35 16.27  .56239 1.4945 143.3 22.3 .296 139
2020 09 17 02  02 05 24.882   +00 35 35.61  .56222 1.4944 143.4 22.3 .317 139
2020 09 17 03  02 05 25.516   +00 35 54.95  .56205 1.4944 143.4 22.3 .339 138
2020 09 17 04  02 05 26.145   +00 36 14.30  .56188 1.4944 143.4 22.3 .361 137
2020 09 17 05  02 05 26.769   +00 36 33.65  .56171 1.4944 143.5 22.3 .383 137
2020 09 17 06  02 05 27.389   +00 36 53.01  .56154 1.4943 143.5 22.3 .406 136
2020 09 17 07  02 05 28.004   +00 37 12.38  .56137 1.4943 143.5 22.3 .429 136
2020 09 17 08  02 05 28.613   +00 37 31.75  .56120 1.4943 143.6 22.3 .453 135
2020 09 17 09  02 05 29.219   +00 37 51.12  .56103 1.4943 143.6 22.3 .477 135
2020 09 17 10  02 05 29.819   +00 38 10.51  .56086 1.4942 143.7 22.3 .502 135
2020 09 17 11  02 05 30.414   +00 38 29.89  .56070 1.4942 143.7 22.3 .527 134
2020 09 17 12  02 05 31.005   +00 38 49.28  .56053 1.4942 143.7 22.3 .552 134
2020 09 17 13  02 05 31.591   +00 39 08.68  .56036 1.4941 143.8 22.3 .578 134
2020 09 17 14  02 05 32.172   +00 39 28.08  .56019 1.4941 143.8 22.3 .605 134
2020 09 17 15  02 05 32.748   +00 39 47.49  .56002 1.4941 143.8 22.3 .631 133
2020 09 17 16  02 05 33.319   +00 40 06.91  .55986 1.4941 143.9 22.3 .659 133
2020 09 17 17  02 05 33.886   +00 40 26.33  .55969 1.4940 143.9 22.3 .686 133
2020 09 17 18  02 05 34.448   +00 40 45.75  .55952 1.4940 143.9 22.3 .715 133
2020 09 17 19  02 05 35.005   +00 41 05.19  .55936 1.4940 144.0 22.3 .743 132
2020 09 17 20  02 05 35.557   +00 41 24.62  .55919 1.4940 144.0 22.3 .772 132
2020 09 17 21  02 05 36.104   +00 41 44.07  .55903 1.4939 144.0 22.3 .802 132
2020 09 17 22  02 05 36.647   +00 42 03.51  .55886 1.4939 144.1 22.3 .832 132
2020 09 17 23  02 05 37.184   +00 42 22.97  .55869 1.4939 144.1 22.3 .862 132
2020 09 18 00  02 05 37.717   +00 42 42.43  .55853 1.4939 144.2 22.3 .893 132
2020 09 18 01  02 05 38.245   +00 43 01.90  .55836 1.4938 144.2 22.3 .924 131
2020 09 18 02  02 05 38.769   +00 43 21.37  .55820 1.4938 144.2 22.3 .956 131
2020 09 18 03  02 05 39.287   +00 43 40.85  .55803 1.4938 144.3 22.3 .988 131
2020 09 18 04  02 05 39.801   +00 44 00.33  .55787 1.4938 144.3 22.3 1.02 131
2020 09 18 05  02 05 40.310   +00 44 19.82  .55770 1.4937 144.3 22.3 1.05 131
2020 09 18 06  02 05 40.814   +00 44 39.31  .55754 1.4937 144.4 22.3 1.09 131
2020 09 18 07  02 05 41.313   +00 44 58.82  .55738 1.4937 144.4 22.3 1.12 131
2020 09 18 08  02 05 41.807   +00 45 18.32  .55721 1.4937 144.4 22.2 1.16 131
2020 09 18 09  02 05 42.297   +00 45 37.84  .55705 1.4936 144.5 22.2 1.19 131
2020 09 18 10  02 05 42.782   +00 45 57.36  .55689 1.4936 144.5 22.2 1.23 130
2020 09 18 11  02 05 43.262   +00 46 16.88  .55672 1.4936 144.5 22.2 1.26 130
2020 09 18 12  02 05 43.737   +00 46 36.41  .55656 1.4936 144.6 22.2 1.30 130
2020 09 18 13  02 05 44.207   +00 46 55.95  .55640 1.4935 144.6 22.2 1.33 130
2020 09 18 14  02 05 44.673   +00 47 15.49  .55623 1.4935 144.7 22.2 1.37 130
2020 09 18 15  02 05 45.134   +00 47 35.04  .55607 1.4935 144.7 22.2 1.41 130
2020 09 18 16  02 05 45.590   +00 47 54.60  .55591 1.4935 144.7 22.2 1.45 130
2020 09 18 17  02 05 46.041   +00 48 14.16  .55575 1.4934 144.8 22.2 1.49 130
2020 09 18 18  02 05 46.487   +00 48 33.73  .55559 1.4934 144.8 22.2 1.52 130
2020 09 18 19  02 05 46.929   +00 48 53.31  .55542 1.4934 144.8 22.2 1.56 130
2020 09 18 20  02 05 47.365   +00 49 12.89  .55526 1.4934 144.9 22.2 1.60 130
2020 09 18 21  02 05 47.797   +00 49 32.47  .55510 1.4933 144.9 22.2 1.64 130
2020 09 18 22  02 05 48.224   +00 49 52.07  .55494 1.4933 144.9 22.2 1.69 129
2020 09 18 23  02 05 48.647   +00 50 11.67  .55478 1.4933 145.0 22.2 1.73 129